Location: The Saddle
(36.8333°N, 80.3417°W)
Time: 08:53:08
(UTC-04:00)

A-11 Canister half - Pass Details

Date: 02 June 2024
Orbit: 1515 x 1685 km, 47.2° (Epoch: 17 June)

Event Time Altitude Azimuth Distance (km) Brightness Sun altitude
Rises 05:01:34 0° 297° (WNW) 4,753 11.3 -11.1°
Reaches altitude 10° 05:04:48 10° 302° (WNW) 3,747 10.8 -10.6°
Maximum altitude 05:14:02 56° 20° (NNE) 1,770 9.7 -9.1°
Drops below altitude 10° 05:23:04 10° 97° (E) 3,670 11.8 -7.6°
Sets 05:26:11 0° 102° (ESE) 4,651 12.2 -7.1°
